Location: Bosdarros
(43.2167°N, 0.3667°W)
Time: 15:34:53
(UTC+00:00)

Cosmos 1763 Rocket - Pass Details

Date: 22 April 2021
Orbit: 733 x 779 km, 74.0° (Epoch: 12 May)

Event Time Altitude Azimuth Distance (km) Brightness Sun altitude
Rises 20:56:19 0° 346° (NNW) 3,174 7.6 -20.3°
Reaches altitude 10° 20:58:50 10° 354° (N) 2,245 6.6 -20.6°
Maximum altitude 21:03:33 38° 63° (ENE) 1,117 4.1 -21.3°
Enters shadow 21:04:17 36° 83° (E) 1,156 4.1 -21.4°
